Location: Vanderbilt Beach
(26.2700°N, 81.7900°W)
Time: 12:52:28
(UTC-04:00)

Tianhe-1 - Visible Passes

Search period start: 13 June 2021 00:00
Search period end: 23 June 2021 00:00
Orbit: 375 x 387 km, 41.5° (Epoch: 12 June)

Date Brightness Start Highest point End Pass type
(mag) Time Alt. Az. Time Alt. Az. Time Alt. Az.
13 Jun 3.3 05:36:12 10° S 05:38:27 18° SE 05:40:43 10° E visible
15 Jun 1.9 05:12:30 32° S 05:13:17 39° SE 05:16:15 10° ENE visible
16 Jun 4.2 04:14:29 11° E 04:14:29 11° E 04:14:38 10° E visible
16 Jun 2.1 05:46:37 13° W 05:49:03 37° NNW 05:52:01 10° NE visible
17 Jun 1.4 04:48:31 65° NE 04:48:31 65° NE 04:51:16 10° NE visible
18 Jun 3.1 05:22:29 15° WNW 05:24:04 21° NNW 05:26:32 10° NNE visible
19 Jun 3.2 04:24:17 26° NNE 04:24:17 26° NNE 04:26:00 10° NE visible
20 Jun 3.7 04:58:08 12° NW 04:59:06 13° NNW 05:00:43 10° N visible
21 Jun 4.3 03:59:50 14° NNE 03:59:50 14° NNE 04:00:28 10° NNE visible
